Allentown, PA

1:07 PM EDT on July 24, 2017 (GMT -0400)
Lehigh Valley International

Weather History for KABE - April, 2013

Change the Weather History Date:

Friday, April 19, 2013

  Actual Average Record
Temperature  
Mean Temperature 64 °F 51 °F  
Max Temperature 77 °F 63 °F 91 °F (1976)
Min Temperature 50 °F 40 °F 26 °F (2001)
Degree Days  
Heating Degree Days 1 14  
Month to date heating degree days 261 324  
Since 1 July heating degree days 5049 5436  
Cooling Degree Days 0 0  
Month to date cooling degree days 8 0  
Year to date cooling degree days 8 0  
Growing Degree Days 14 (Base 50)    
Moisture  
Dew Point 59 °F    
Average Humidity 77    
Maximum Humidity 93    
Minimum Humidity 60    
Precipitation  
Precipitation 1.07 in 0.11 in 1.07 in (2013)
Month to date precipitation 2.69 2.27  
Year to date precipitation 11.04 11.39  
Snow  
Snow 0.00 in 0.10 in 3.70 in (1983)
Month to date snowfall 0.0 0.9  
Since 1 July snowfall 21.4 32.8  
Snow Depth 0.00 in    
Sea Level Pressure  
Sea Level Pressure 29.81 in    
Wind  
Wind Speed 12 mph (SSW)    
Max Wind Speed 25 mph    
Max Gust Speed 35 mph    
Visibility 8 miles    
Events Rain    
T = Trace of Precipitation, MM = Missing Value Source: NWS Daily Summary

Daily Weather History Graph

Daily Weather History Graph

Search for Another Location

Airport or City:

Trip Planner

Search our weather history database for the weather conditions in past years. The results will help you decide how hot, cold, wet, or windy it might be!

Date:

Astronomy

Apr. 19, 2013 Rise Set
Actual Time 6:16 AM EDT 7:45 PM EDT
Civil Twilight 5:48 AM EDT 8:14 PM EDT
Nautical Twilight 5:13 AM EDT 8:48 PM EDT
Astronomical Twilight 4:37 AM EDT 9:25 PM EDT
Moon 1:25 PM EDT (4/19) 2:32 AM EDT (4/19)
Length of Visible Light 14h 26m
Length of Day
13h 28m
First Quarter, 61% of the Moon is Illuminated
Apr 19
First Quarter
Apr 25
Full
May 2
Last Quarter
May 9
New
May 18
First Quarter

Hourly Weather History & Observations

Time (EDT) Temp. Dew Point Humidity Pressure Visibility Wind Dir Wind Speed Gust Speed Precip Events Conditions
12:42 AM 60.8 °F 57.2 °F 88% 30.04 in 10.0 mi South 13.8 mph 20.7 mph N/A   Overcast
12:51 AM 61.0 °F 57.0 °F 87% 30.04 in 10.0 mi South 12.7 mph - N/A   Overcast
1:35 AM 60.8 °F 57.2 °F 88% 30.02 in 10.0 mi South 12.7 mph 19.6 mph N/A   Overcast
1:51 AM 62.1 °F 57.0 °F 84% 30.01 in 10.0 mi South 9.2 mph 19.6 mph N/A   Overcast
2:05 AM 62.6 °F 57.2 °F 82% 29.99 in 10.0 mi South 8.1 mph - N/A   Overcast
2:51 AM 62.1 °F 57.0 °F 84% 29.97 in 10.0 mi South 8.1 mph 17.3 mph N/A   Overcast
3:51 AM 61.0 °F 57.0 °F 87% 29.97 in 10.0 mi South 5.8 mph - N/A   Overcast
4:02 AM 60.8 °F 57.2 °F 88% 29.96 in 10.0 mi South 8.1 mph - N/A   Overcast
4:22 AM 62.6 °F 57.2 °F 82% 29.95 in 10.0 mi South 9.2 mph - N/A   Overcast
4:51 AM 62.1 °F 57.0 °F 84% 29.94 in 10.0 mi South 10.4 mph 18.4 mph N/A   Overcast
5:51 AM 62.1 °F 57.9 °F 86% 29.92 in 10.0 mi South 8.1 mph - N/A   Overcast
6:51 AM 62.1 °F 57.9 °F 86% 29.93 in 10.0 mi SSW 8.1 mph - N/A   Overcast
7:11 AM 62.6 °F 57.2 °F 82% 29.93 in 10.0 mi South 6.9 mph - N/A   Overcast
7:51 AM 63.0 °F 57.9 °F 84% 29.92 in 10.0 mi South 8.1 mph - N/A   Overcast
8:51 AM 64.9 °F 60.1 °F 84% 29.89 in 10.0 mi South 11.5 mph 24.2 mph N/A   Overcast
8:58 AM 64.4 °F 60.8 °F 88% 29.90 in 10.0 mi South 10.4 mph 18.4 mph N/A   Overcast
9:51 AM 64.0 °F 60.1 °F 87% 29.88 in 10.0 mi South 11.5 mph - 0.00 in   Overcast
10:00 AM 62.6 °F 60.8 °F 94% 29.88 in 5.0 mi South 10.4 mph 17.3 mph N/A   Overcast
10:36 AM 64.4 °F 60.8 °F 88% 29.86 in 9.0 mi South 16.1 mph 20.7 mph N/A   Overcast
10:51 AM 64.9 °F 61.0 °F 87% 29.86 in 8.0 mi South 11.5 mph 20.7 mph N/A   Overcast
11:26 AM 66.2 °F 60.8 °F 83% 29.84 in 10.0 mi South 15.0 mph 19.6 mph N/A   Overcast
11:51 AM 69.1 °F 61.0 °F 75% 29.82 in 10.0 mi South 18.4 mph 29.9 mph N/A   Overcast
12:51 PM 71.1 °F 62.1 °F 73% 29.79 in 10.0 mi South 17.3 mph 25.3 mph N/A   Overcast
1:02 PM 71.6 °F 62.6 °F 73% 29.78 in 10.0 mi South 15.0 mph 23.0 mph N/A   Overcast
1:38 PM 71.6 °F 62.6 °F 73% 29.78 in 10.0 mi SSW 17.3 mph 23.0 mph N/A   Overcast
1:51 PM 71.1 °F 62.1 °F 73% 29.77 in 10.0 mi South 11.5 mph 24.2 mph 0.00 in Rain Light Rain
2:03 PM 71.6 °F 62.6 °F 73% 29.76 in 10.0 mi South 15.0 mph 20.7 mph 0.00 in   Overcast
2:51 PM 73.9 °F 62.1 °F 66% 29.70 in 10.0 mi SSW 19.6 mph 27.6 mph 0.00 in   Mostly Cloudy
2:58 PM 75.2 °F 62.6 °F 65% 29.70 in 10.0 mi South 17.3 mph 25.3 mph N/A   Mostly Cloudy
3:51 PM 73.9 °F 63.0 °F 68% 29.66 in 10.0 mi South 13.8 mph 21.9 mph N/A   Mostly Cloudy
4:51 PM 75.0 °F 61.0 °F 62% 29.64 in 10.0 mi South 18.4 mph 27.6 mph N/A   Overcast
5:51 PM 75.0 °F 61.0 °F 62% 29.62 in 10.0 mi South 21.9 mph 29.9 mph N/A   Overcast
6:51 PM 73.0 °F 62.1 °F 68% 29.60 in 10.0 mi South 12.7 mph 21.9 mph 0.01 in Rain Light Rain
7:51 PM 71.1 °F 63.0 °F 75% 29.57 in 10.0 mi South 18.4 mph 23.0 mph 0.01 in Rain Light Rain
8:21 PM 66.2 °F 62.6 °F 88% 29.65 in 2.5 mi WSW 20.7 mph 33.4 mph 0.00 in Rain Rain
8:25 PM 62.6 °F 60.8 °F 94% 29.65 in 1.5 mi SW 9.2 mph 33.4 mph 0.12 in Rain Heavy Rain
8:47 PM 62.6 °F 60.8 °F 94% 29.68 in 2.0 mi SSW 16.1 mph 24.2 mph 0.54 in Rain Heavy Rain
8:51 PM 62.1 °F 60.1 °F 93% 29.67 in 2.0 mi SW 10.4 mph 24.2 mph 0.57 in Rain Heavy Rain
9:23 PM 60.8 °F 59.0 °F 94% 29.66 in 2.0 mi West 5.8 mph - 0.16 in Rain Heavy Rain
9:32 PM 60.8 °F 60.8 °F 100% 29.69 in 2.0 mi NW 9.2 mph - 0.19 in Rain Heavy Rain
9:40 PM 59.0 °F 55.4 °F 88% 29.68 in 2.0 mi NW 13.8 mph 21.9 mph 0.23 in Rain Heavy Rain
9:51 PM 59.0 °F 55.9 °F 90% 29.70 in 2.0 mi WNW 11.5 mph 18.4 mph 0.28 in Rain Heavy Rain
9:55 PM 59.0 °F 55.4 °F 88% 29.71 in 2.0 mi West 6.9 mph 18.4 mph 0.03 in Rain Heavy Rain
10:51 PM 55.0 °F 48.9 °F 80% 29.73 in 2.0 mi NW 9.2 mph 16.1 mph 0.13 in Rain Light Rain
11:06 PM 53.6 °F 46.4 °F 77% 29.73 in 10.0 mi NW 10.4 mph - 0.00 in Rain Light Rain
11:51 PM 51.1 °F 46.0 °F 83% 29.76 in 7.0 mi West 8.1 mph - 0.05 in Rain Rain